Simultaneous Nadir Overpasses (SNOs) Predictions

Prediction of SNOs between GOES-16 and METOP-B Satellite Orbit:

Table of predicted SNOs for the next 14.0 days since TLE Epoch: 12/22/2017
Index Date Time (GOES-16) GOES-16 Lat,Lon METOP-B Lat,Lon Distance(km) Time Diff (sec)
1 12/23/2017 02:25:34 0.00, -75.17 0.37, -73.57 182.53 80
2 12/24/2017 14:44:25 0.02, -75.19 0.66, -78.13 335.25 80
3 12/25/2017 14:21:05 0.02, -75.19 -0.44, -73.13 234.42 80
4 12/27/2017 02:40:06 -0.02, -75.20 -0.62, -77.73 288.94 80
5 12/28/2017 02:22:07 -0.02, -75.21 0.55, -72.74 281.17 80
6 12/29/2017 14:40:59 -0.01, -75.23 0.48, -77.30 236.96 80
7 12/30/2017 14:17:40 -0.01, -75.23 -0.68, -72.32 332.87 80
8 01/01/2018 02:36:40 0.01, -75.24 -0.37, -76.91 190.31 80
9 01/02/2018 02:18:41 0.00, -75.25 0.74, -71.91 380.18 80
10 01/03/2018 14:37:32 0.01, -75.28 0.29, -76.47 136.27 80
11 01/04/2018 14:14:13 0.02, -75.29 -0.81, -71.47 434.44 80




NCC Satellite Simultaneous Nadir Overpasses (SNOs) Prediction Service
